Temperature
3 4 4 5 5 6 6 6 6 6 7 7 7 7 8 8 8 8 8 8 8 8 8 9 9 9 9 9 9 9 9 9 9 9 9 9 9 9 9 9 9 9 9
2 3 4 4 5 5 5 5 5 5 6 6 6 6 7 7 7 7 7 7 8 8 8 8 8 8 8 9 9 9 9 9 9 8 8 8 8 8 8 9 9 9 9
1 2 2 3 3 4 4 4 5 5 5 5 5 6 6 6 6 7 7 7 7 7 7 7 8 8 8 8 8 8 8 8 8 8 8 8 8 8 8 8 8 8 8
0 1 1 2 2 3 3 4 4 4 4 4 4 5 5 5 5 6 6 6 6 6 7 7 7 7 7 7 8 8 8 8 8 8 8 8 8 8 7 7 8 8 8
-0 0 0 1 2 2 2 3 3 3 4 4 4 4 4 4 4 5 5 5 6 6 6 6 6 7 7 7 7 7 7 7 7 7 7 7 8 8 7 7 7 7 7
-1 -0 0 1 1 2 2 2 2 2 3 3 3 3 3 3 4 4 4 5 5 5 5 6 6 6 6 6 6 7 7 7 7 7 7 7 7 7 7 7 7 7 7
-1 -1 -1 -0 0 1 1 1 1 2 2 2 2 2 2 3 3 3 3 4 4 5 5 5 5 5 6 6 6 6 6 6 6 7 7 7 7 7 7 7 6 6 6
-2 -1 -1 -1 -1 -0 0 1 1 1 1 1 1 2 2 2 2 2 3 3 3 4 4 4 5 5 5 5 5 6 6 6 6 6 6 6 6 6 6 6 6 6 5
-2 -2 -2 -1 -1 -1 -0 -0 0 0 1 1 1 1 1 1 2 2 2 2 3 3 3 3 4 4 4 5 5 5 5 5 5 6 6 6 6 6 6 6 6 5 5
-2 -2 -2 -2 -2 -2 -1 -1 -1 -0 -0 0 0 0 1 1 1 1 1 2 2 2 3 3 3 3 4 4 4 5 5 5 5 5 5 5 5 5 5 5 5 5 5
-3 -2 -2 -2 -2 -2 -2 -2 -1 -1 -1 -0 -0 -0 0 0 1 1 1 1 2 2 2 2 3 3 3 3 4 4 4 4 4 4 5 5 5 5 5 4 4 4 4
-3 -3 -3 -3 -3 -2 -2 -2 -2 -2 -1 -1 -1 -0 -0 -0 0 0 1 1 1 1 1 2 2 2 2 3 3 3 3 3 4 4 4 4 4 4 4 4 4 4 4
-3 -3 -3 -3 -3 -3 -3 -3 -3 -2 -2 -2 -1 -1 -1 -1 -0 -0 0 0 1 1 1 1 1 1 2 2 2 2 2 3 3 3 3 4 4 4 4 4 4 4 4
-4 -4 -4 -4 -3 -3 -3 -3 -3 -3 -3 -2 -2 -2 -1 -1 -1 -1 -0 -0 0 0 0 0 1 1 1 1 1 2 2 2 2 3 3 3 3 3 3 3 3 3 3
-5 -4 -4 -4 -4 -4 -4 -4 -4 -4 -3 -3 -3 -2 -2 -2 -1 -1 -1 -1 -1 -1 -0 -0 0 1 1 1 1 1 1 2 2 2 2 2 3 3 3 3 3 3 2
-5 -5 -5 -5 -5 -4 -4 -4 -4 -4 -4 -4 -3 -3 -3 -2 -2 -2 -2 -2 -1 -1 -1 -1 -0 0 0 0 0 1 1 1 1 2 2 2 2 2 2 2 2 2 2
-6 -5 -5 -5 -5 -5 -5 -4 -4 -4 -4 -4 -4 -4 -3 -3 -3 -2 -2 -2 -2 -2 -1 -1 -1 -1 -0 -0 -0 0 0 1 1 1 1 1 1 1 1 1 1 1 1
-6 -6 -6 -5 -5 -5 -5 -5 -4 -4 -4 -4 -4 -4 -4 -3 -3 -3 -3 -3 -3 -3 -2 -2 -2 -1 -1 -1 -1 -1 -0 -0 0 0 1 1 1 1 1 1 1 1 1
-6 -6 -6 -6 -6 -5 -5 -5 -5 -5 -5 -5 -5 -5 -4 -4 -4 -4 -3 -3 -3 -3 -3 -3 -2 -2 -2 -2 -1 -1 -1 -1 -1 -0 -0 -0 -0 0 0 0 0 0 0
-6 -6 -6 -6 -6 -6 -6 -5 -5 -5 -5 -5 -5 -5 -5 -5 -4 -4 -4 -4 -4 -3 -3 -3 -3 -3 -2 -2 -2 -2 -2 -1 -1 -1 -1 -1 -1 -1 -1 -1 -0 -0 -0
-7 -7 -6 -6 -6 -6 -6 -6 -6 -6 -6 -6 -5 -5 -5 -5 -5 -5 -4 -4 -4 -4 -4 -4 -3 -3 -3 -3 -2 -2 -2 -2 -2 -2 -2 -2 -1 -1 -1 -1 -1 -1 -1
-7 -7 -7 -7 -7 -7 -7 -6 -6 -6 -6 -6 -6 -6 -5 -5 -5 -5 -5 -5 -5 -5 -4 -4 -4 -4 -4 -3 -3 -3 -3 -3 -3 -3 -3 -2 -2 -2 -2 -2 -2 -2 -2
-8 -8 -8 -8 -7 -7 -7 -7 -7 -7 -7 -6 -6 -6 -6 -6 -6 -6 -6 -5 -5 -5 -5 -5 -5 -5 -4 -4 -4 -4 -4 -3 -3 -3 -3 -3 -3 -3 -3 -3 -2 -2 -2
-8 -8 -8 -8 -8 -8 -8 -8 -8 -7 -7 -7 -7 -7 -7 -6 -6 -6 -6 -6 -6 -6 -6 -6 -6 -5 -5 -5 -5 -4 -4 -4 -4 -4 -4 -4 -4 -4 -3 -3 -3 -3 -3
-9 -9 -9 -9 -9 -8 -8 -8 -8 -8 -8 -8 -7 -7 -7 -7 -7 -7 -7 -7 -6 -7 -6 -6 -6 -6 -6 -5 -5 -5 -5 -5 -4 -4 -4 -4 -4 -4 -4 -4 -4 -4 -4
-9 -9 -9 -9 -9 -9 -9 -9 -9 -9 -9 -8 -8 -8 -8 -8 -8 -8 -7 -7 -7 -7 -7 -7 -7 -6 -6 -6 -6 -5 -5 -5 -5 -5 -5 -5 -5 -5 -5 -5 -5 -5 -5
Wind_Speed
8 8 8 8 8 8 7 6 5 5 4 3 2 2 3 3 3 3 3 3 2 1 0 0 1 1 2 3 3 3 3 2 3 3 2 2 2 2 2 2 2 3 3
10 10 10 9 8 8 8 7 6 5 4 2 2 2 2 2 2 3 4 3 3 2 1 0 1 1 2 2 3 3 3 2 2 3 3 1 0 1 1 1 1 2 3
8 9 9 9 8 8 8 7 7 6 5 5 3 3 3 2 2 3 3 4 3 2 1 1 1 1 2 3 4 4 4 4 3 2 3 3 3 1 0 1 1 1 1
8 8 9 9 8 8 7 7 7 7 6 4 3 2 2 3 3 3 3 4 3 2 2 1 1 1 2 3 3 4 3 4 4 2 1 1 3 3 1 1 0 1 1
8 9 9 9 8 7 7 7 7 8 7 5 4 2 3 3 3 3 3 4 3 3 2 2 1 1 2 3 3 3 3 3 4 3 2 2 1 1 2 2 1 0 0
8 9 9 9 8 8 8 8 8 8 7 6 5 4 4 3 4 4 3 3 3 3 3 2 1 1 1 2 3 3 4 4 4 3 3 3 3 3 2 2 2 1 1
7 7 9 10 10 10 9 8 8 8 8 7 6 5 5 4 3 4 3 4 4 4 4 3 2 2 2 2 2 3 3 4 5 5 4 3 2 3 3 3 2 1 1
6 7 7 8 8 10 9 8 9 9 9 8 7 6 5 4 3 4 4 4 4 4 4 3 3 2 2 2 2 2 3 4 4 5 4 3 3 3 3 4 3 2 1
7 7 7 7 8 9 9 8 8 9 9 9 8 7 6 5 5 5 4 4 3 4 4 3 3 2 2 2 2 2 3 3 4 4 5 4 3 3 3 3 4 4 3
8 7 7 7 7 8 8 8 8 8 9 9 8 7 7 6 5 5 5 4 4 4 4 3 3 3 2 2 2 2 2 2 3 3 4 4 3 4 3 3 3 3 4
7 7 7 7 7 8 8 8 9 9 9 9 8 8 7 6 5 5 5 4 4 4 4 3 3 3 3 2 2 3 3 3 3 3 4 5 4 4 4 3 3 3 3
6 6 6 7 7 8 9 9 9 9 9 8 8 8 8 6 6 5 5 4 4 4 4 3 3 3 2 2 3 3 3 3 4 3 4 4 4 5 4 4 4 4 4
7 6 6 6 7 8 8 9 9 9 9 8 8 8 8 7 7 6 6 5 4 3 3 2 2 3 2 2 2 3 3 3 3 4 4 4 5 5 4 4 5 4 3
7 7 7 7 7 8 8 9 9 9 9 9 8 8 8 7 7 7 6 5 4 3 3 2 3 3 3 2 2 3 3 3 3 3 3 4 5 6 6 5 5 5 4
8 8 9 9 8 8 8 8 9 9 9 8 8 8 8 7 7 6 6 5 4 4 3 2 2 2 2 2 2 2 3 3 2 2 2 3 4 5 5 5 6 6 5
9 9 9 10 10 9 9 9 9 9 8 8 8 8 8 8 7 6 6 5 4 4 3 2 2 2 1 1 2 2 2 2 3 2 2 2 3 3 3 4 5 6 6
10 10 10 9 10 9 8 9 9 9 8 7 8 8 8 8 7 6 5 5 5 4 3 3 2 2 2 2 1 1 1 2 2 3 3 2 2 2 3 3 3 3 4
10 10 9 9 9 8 8 8 8 8 7 7 7 8 8 8 8 7 5 5 4 4 3 3 3 2 2 2 1 1 1 1 2 2 3 3 3 3 4 4 3 2 3
9 9 9 8 8 8 8 8 8 7 7 7 7 8 7 8 8 7 6 5 4 4 4 3 3 2 2 2 2 1 0 1 1 1 2 2 3 3 4 4 4 3 2
8 8 8 8 8 8 7 7 8 7 7 8 8 7 7 7 7 7 6 5 4 4 4 4 4 3 3 3 2 1 1 1 1 1 1 1 2 3 3 4 5 3 2
9 8 8 7 8 8 6 7 7 8 8 8 7 7 7 7 6 6 5 5 5 4 4 5 5 4 4 5 4 2 1 1 1 1 1 1 2 3 3 2 3 3 2
9 8 8 8 8 7 6 7 8 8 7 7 7 7 7 6 6 5 5 4 4 4 4 4 5 4 4 5 4 4 3 2 1 1 1 2 3 3 2 2 3 4 3
9 8 8 9 8 7 6 8 9 8 7 7 7 6 7 6 6 5 5 4 3 3 4 3 4 4 4 4 6 5 4 3 2 2 3 3 4 4 3 4 4 3 2
8 8 8 9 9 8 8 7 8 7 7 7 6 6 5 6 5 5 4 4 3 3 3 3 3 4 4 3 3 3 2 3 2 2 3 5 5 5 5 4 3 2 2
8 7 8 9 10 9 9 9 7 7 6 6 6 5 5 5 5 5 4 4 3 3 4 3 2 3 4 4 5 3 2 1 1 2 2 2 3 3 3 3 3 2 2
7 8 8 9 9 9 9 8 7 6 6 6 5 4 4 4 4 4 5 7 6 7 8 7 6 4 5 6 5 4 3 3 2 2 2 2 2 2 2 2 2 2 2
Wind_Direction
351 359 1 3 6 7 8 4 5 1 4 2 354 346 339 340 349 357 347 348 337 310 89 324 175 185 207 204 187 179 158 154 144 119 92 50 60 75 72 73 83 80 90
356 359 0 3 4 1 1 1 356 353 348 335 332 323 319 317 336 358 352 348 344 326 282 167 239 213 219 203 192 178 169 166 166 148 144 152 2 20 59 71 97 86 81
352 350 354 354 356 357 356 353 347 345 345 345 0 6 4 359 0 343 332 335 326 322 327 295 250 220 217 216 206 195 180 184 192 171 159 163 198 207 341 66 91 93 94
353 349 351 350 348 345 347 350 349 349 345 352 354 2 340 324 314 314 309 327 326 323 305 296 267 230 223 221 218 205 200 182 190 191 162 157 149 158 188 264 127 99 101
351 349 349 343 339 342 348 347 350 352 350 345 335 319 310 312 321 328 319 321 328 325 309 286 283 265 245 227 215 211 202 193 188 185 172 151 111 133 158 200 232 321 299
347 347 349 352 350 351 354 351 351 348 346 340 334 323 310 315 325 322 311 313 308 313 314 298 287 285 268 239 223 208 203 199 187 184 182 173 163 169 163 182 201 225 258
345 349 351 351 350 350 351 350 348 342 341 338 331 319 307 293 285 291 289 298 303 295 279 290 279 270 275 262 230 213 211 201 190 191 196 194 191 164 163 164 177 206 261
345 343 344 346 345 345 345 346 344 340 338 336 326 320 312 301 294 293 289 281 283 281 277 269 263 258 252 259 243 221 215 204 198 195 193 193 194 178 169 166 162 169 231
338 337 341 344 342 342 340 339 338 336 335 332 325 320 318 310 302 299 295 283 288 300 290 271 259 253 249 249 240 225 219 205 205 203 198 198 198 191 190 174 170 172 197
334 335 341 341 340 338 339 339 337 333 332 333 329 321 316 310 304 301 297 294 295 300 290 280 267 253 247 240 239 229 210 200 215 208 201 204 201 194 188 187 188 182 185
324 328 334 334 336 340 343 344 340 337 336 334 329 325 319 316 311 305 301 301 298 291 280 272 265 249 240 233 231 238 209 201 207 207 201 207 197 193 190 186 187 187 176
318 325 329 334 339 341 342 341 338 335 332 330 327 328 325 321 316 310 308 304 297 292 284 280 266 252 243 230 222 233 214 202 206 211 205 210 199 195 191 188 190 192 186
330 335 332 333 333 334 335 335 332 330 330 329 330 332 333 329 321 314 311 306 300 301 302 295 271 254 242 235 235 232 213 208 211 212 212 210 198 200 195 189 190 193 187
330 333 332 327 327 327 328 328 328 329 330 331 331 331 330 327 322 321 318 316 312 306 296 288 275 256 239 227 229 229 204 207 212 215 214 209 203 203 195 192 189 182 178
330 329 329 326 324 325 327 328 328 329 328 329 331 328 327 326 325 327 324 322 321 315 300 288 284 277 247 222 214 216 203 203 209 209 215 214 207 203 199 194 185 179 179
322 323 325 325 321 321 323 325 325 325 325 325 328 330 331 331 330 328 327 328 328 328 319 300 292 285 274 258 237 233 203 195 197 196 200 207 196 188 190 196 190 185 185
317 318 318 315 312 311 314 316 317 320 323 325 327 331 333 332 329 328 332 332 331 332 329 317 306 290 272 270 263 285 235 195 200 193 186 188 185 178 158 156 168 189 197
317 315 314 312 309 306 313 314 318 321 323 325 328 331 334 329 329 334 332 329 335 336 335 332 321 303 289 285 278 300 256 187 197 186 174 176 178 181 164 152 160 176 197
305 305 304 306 308 307 311 317 320 322 325 326 327 329 329 327 329 332 331 329 337 342 343 339 347 337 312 307 303 314 140 136 161 163 162 158 155 167 162 157 160 165 169
311 311 313 315 315 312 316 317 317 319 320 320 321 323 324 324 324 325 327 334 339 342 346 353 358 356 348 328 316 318 117 100 87 76 98 152 147 156 161 163 161 171 179
316 317 317 316 314 316 318 315 314 312 314 318 321 323 325 324 324 328 335 343 347 354 2 2 2 6 5 3 1 9 54 109 102 79 69 81 102 131 140 156 162 172 162
325 325 323 320 321 323 322 315 312 316 322 321 322 323 327 329 332 336 339 347 354 0 5 7 4 5 2 5 11 18 15 42 86 84 78 87 81 81 102 118 134 127 113
324 326 324 322 325 327 325 317 318 324 325 324 325 327 331 333 335 335 338 350 358 357 353 358 359 356 358 0 7 16 23 35 51 82 88 80 74 62 63 74 89 103 115
325 327 328 327 326 328 327 319 321 325 323 323 326 330 334 335 340 337 338 343 347 345 344 350 346 344 347 350 351 356 8 31 47 67 78 72 67 60 57 57 56 56 91
324 328 328 325 323 326 326 326 328 329 326 324 327 333 333 331 333 336 338 336 334 334 339 331 329 335 334 338 344 349 2 23 63 73 63 63 68 67 62 58 55 58 64
322 325 326 324 324 328 327 328 331 331 327 326 333 334 332 330 333 334 339 347 347 351 355 354 352 341 341 344 352 2 18 26 51 65 77 72 71 73 67 65 53 48 52
Height
1513 1512 1510 1509 1508 1507 1506 1506 1506 1505 1505 1505 1505 1505 1505 1506 1507 1508 1508 1509 1509 1510 1511 1512 1513 1514 1515 1516 1518 1519 1521 1523 1525 1527 1528 1530 1531 1532 1533 1534 1536 1537 1538
1511 1510 1509 1508 1506 1506 1505 1504 1504 1504 1504 1504 1504 1503 1503 1503 1504 1504 1505 1506 1506 1507 1507 1508 1509 1510 1512 1513 1514 1516 1517 1519 1521 1523 1525 1527 1529 1529 1530 1531 1533 1534 1535
1512 1510 1508 1507 1506 1504 1503 1503 1503 1502 1502 1502 1501 1501 1500 1500 1500 1500 1501 1502 1502 1503 1503 1504 1506 1507 1508 1508 1510 1512 1513 1515 1517 1519 1522 1523 1523 1525 1527 1528 1530 1531 1532
1513 1511 1508 1507 1505 1504 1503 1502 1501 1500 1500 1499 1498 1497 1497 1496 1496 1497 1497 1498 1499 1499 1500 1501 1502 1503 1504 1504 1506 1508 1510 1511 1513 1515 1517 1519 1520 1522 1523 1525 1526 1527 1529
1513 1511 1509 1507 1505 1504 1502 1501 1499 1498 1497 1497 1496 1495 1495 1494 1494 1494 1494 1494 1494 1495 1496 1497 1497 1498 1499 1500 1502 1504 1505 1507 1509 1510 1512 1514 1516 1518 1519 1521 1522 1524 1525
1513 1511 1509 1507 1504 1502 1501 1499 1497 1496 1495 1494 1493 1492 1492 1491 1490 1490 1490 1490 1490 1491 1492 1493 1493 1494 1495 1496 1498 1499 1501 1502 1504 1506 1508 1509 1511 1513 1515 1516 1518 1519 1522
1513 1510 1508 1505 1503 1501 1499 1497 1495 1494 1493 1491 1490 1489 1489 1488 1487 1487 1486 1486 1485 1486 1487 1488 1489 1490 1490 1492 1493 1495 1496 1498 1499 1501 1503 1505 1507 1509 1511 1513 1514 1516 1518
1512 1510 1508 1505 1502 1500 1498 1496 1494 1492 1491 1489 1487 1486 1486 1485 1484 1484 1483 1482 1482 1482 1483 1483 1484 1485 1486 1488 1489 1490 1492 1493 1495 1497 1499 1501 1503 1505 1507 1509 1511 1512 1514
1512 1509 1507 1505 1502 1499 1497 1495 1493 1491 1489 1487 1485 1483 1483 1481 1480 1480 1479 1478 1478 1478 1478 1479 1480 1481 1482 1483 1484 1485 1487 1489 1490 1492 1494 1496 1498 1501 1503 1505 1507 1509 1510
1511 1508 1506 1504 1502 1499 1497 1495 1492 1489 1487 1484 1483 1481 1479 1478 1477 1476 1475 1474 1474 1473 1473 1474 1475 1476 1477 1478 1480 1481 1482 1484 1485 1487 1489 1491 1493 1496 1498 1500 1502 1504 1506
1510 1508 1506 1503 1501 1498 1495 1493 1490 1487 1484 1482 1480 1478 1476 1475 1473 1472 1471 1470 1469 1469 1469 1470 1470 1471 1472 1473 1475 1476 1477 1479 1481 1483 1484 1486 1489 1491 1493 1495 1497 1499 1501
1510 1507 1505 1502 1500 1497 1494 1491 1488 1485 1482 1480 1478 1475 1473 1472 1470 1468 1467 1467 1466 1466 1465 1466 1466 1467 1468 1469 1470 1471 1472 1474 1476 1478 1479 1481 1483 1485 1488 1490 1492 1494 1496
1508 1506 1504 1501 1498 1496 1493 1490 1487 1484 1481 1478 1475 1473 1471 1469 1467 1465 1464 1463 1462 1461 1461 1461 1462 1462 1463 1464 1466 1467 1468 1469 1471 1473 1474 1476 1478 1480 1482 1484 1487 1489 1491
1508 1505 1502 1500 1497 1494 1491 1488 1485 1482 1479 1476 1473 1470 1468 1466 1464 1462 1461 1459 1459 1458 1457 1457 1458 1458 1459 1460 1462 1463 1463 1464 1466 1468 1469 1471 1473 1474 1477 1479 1481 1484 1486
1507 1504 1501 1498 1495 1492 1489 1487 1483 1480 1477 1474 1471 1468 1466 1464 1462 1460 1458 1457 1456 1455 1454 1454 1454 1455 1455 1456 1457 1458 1459 1460 1461 1463 1464 1466 1468 1469 1472 1474 1476 1479 1481
1506 1503 1500 1497 1493 1490 1487 1484 1481 1478 1475 1472 1469 1466 1464 1461 1459 1457 1455 1454 1452 1452 1451 1450 1450 1450 1451 1452 1453 1454 1455 1456 1457 1458 1459 1461 1463 1465 1467 1470 1472 1474 1477
1505 1501 1498 1495 1492 1489 1486 1482 1479 1476 1473 1470 1467 1464 1461 1459 1457 1455 1453 1451 1450 1449 1448 1447 1447 1447 1448 1449 1450 1451 1452 1452 1453 1454 1455 1457 1459 1461 1463 1465 1467 1470 1472
1502 1499 1496 1492 1490 1487 1484 1481 1478 1474 1471 1469 1465 1463 1460 1458 1455 1453 1451 1450 1448 1447 1445 1445 1445 1445 1445 1446 1447 1447 1448 1449 1449 1450 1451 1453 1455 1457 1458 1460 1462 1465 1467
1501 1498 1494 1491 1487 1484 1481 1478 1475 1472 1469 1467 1464 1461 1459 1456 1454 1452 1450 1449 1447 1445 1444 1444 1443 1442 1443 1444 1444 1444 1445 1445 1446 1446 1448 1450 1451 1453 1455 1457 1458 1460 1463
1499 1495 1491 1488 1485 1482 1479 1476 1473 1470 1467 1465 1462 1460 1458 1455 1453 1451 1449 1448 1446 1445 1444 1443 1442 1441 1441 1442 1442 1442 1443 1442 1443 1443 1445 1447 1448 1450 1451 1453 1455 1456 1458
1496 1492 1489 1486 1483 1480 1477 1474 1471 1468 1466 1463 1461 1459 1456 1454 1452 1450 1448 1447 1446 1444 1443 1442 1441 1441 1440 1440 1440 1440 1440 1441 1441 1441 1442 1444 1445 1447 1448 1450 1452 1453 1455
1493 1490 1486 1483 1480 1477 1474 1471 1469 1467 1464 1461 1459 1457 1455 1453 1451 1449 1448 1446 1445 1443 1442 1441 1440 1439 1439 1439 1439 1439 1439 1439 1439 1439 1440 1441 1443 1444 1446 1447 1448 1450 1452
1490 1487 1483 1480 1478 1475 1472 1469 1467 1464 1462 1459 1457 1455 1453 1452 1450 1448 1446 1445 1444 1443 1442 1441 1440 1439 1439 1438 1438 1438 1438 1438 1438 1439 1439 1440 1441 1442 1443 1444 1446 1447 1449
1488 1484 1481 1477 1475 1472 1470 1467 1465 1462 1460 1457 1455 1453 1452 1450 1449 1447 1446 1445 1444 1443 1441 1440 1440 1439 1438 1437 1437 1437 1437 1437 1437 1438 1438 1439 1440 1441 1441 1442 1443 1445 1446
1485 1482 1479 1475 1472 1470 1467 1465 1462 1460 1457 1455 1453 1452 1450 1449 1448 1446 1445 1444 1443 1443 1442 1441 1440 1438 1437 1437 1437 1436 1436 1436 1436 1436 1437 1437 1438 1439 1440 1441 1441 1443 1444
1483 1480 1477 1473 1471 1468 1465 1462 1460 1458 1456 1454 1452 1450 1449 1448 1447 1445 1444 1443 1443 1442 1441 1440 1439 1438 1438 1437 1436 1435 1435 1435 1435 1435 1435 1436 1437 1437 1438 1439 1440 1441 1441